Regional Weather Roundup
Issued by NWS

Home | Current Version | Previous Version | Graphics & Text | Print | Product List | Glossary On
Versions: 1 2 3 4 5 6 7 8 9 10 11 12 13 14 15 16 17 18 19 20 21 22 23 24 25 26 27 28 29 30 31 32 33 34 35 36 37 38 39 40 41 42 43 44 45 46 47 48 49 50
000
ASUS43 KBIS 271759
RWRND

NORTH DAKOTA REGIONAL WEATHER ROUNDUP
NATIONAL WEATHER SERVICE BISMARCK ND
1200 PM CST SAT DEC 27 2014

NOTE: "FAIR" INDICATES FEW OR NO CLOUDS BELOW 12,000 FEET WITH NO
SIGNIFICANT WEATHER AND/OR OBSTRUCTIONS TO VISIBILITY.


NDZ001>003-009>011-017-271900-
NORTHWEST NORTH DAKOTA

CITY           SKY/WX    TMP DP  RH WIND       PRES   REMARKS
WILLISTON      PTSUNNY   21  14  74 W7        30.00F WCI  12
6HR MIN TEMP:  10; 6HR MAX TEMP:  21;

MINOT          CLOUDY    22  15  75 SW10      29.95F WCI  11
$$

NDZ018>021-031>035-040>046-271900-
SOUTHWEST NORTH DAKOTA

CITY           SKY/WX    TMP DP  RH WIND       PRES   REMARKS
BISMARCK       CLOUDY    25  17  72 SW7       30.05F WCI  17
6HR MIN TEMP:   7; 6HR MAX TEMP:  25;

GARRISON         N/A     23  18  81 SW9       29.98F WCI  13
6HR MIN TEMP:  14; 6HR MAX TEMP:  23;

HETTINGER ARPT SUNNY     25  16  68 SW15      30.03F WCI  13
$$

NDZ004>008-012>016-024-026-027-054-271900-
NORTHEAST NORTH DAKOTA

CITY           SKY/WX    TMP DP  RH WIND       PRES   REMARKS
GRAND FORKS    CLOUDY    13  10  88 S8        30.04F WCI   2
DEVILS LAKE    CLOUDY    19  12  73 NW12      30.00F WCI   7
$$

NDZ022-023-025-028>030-036>039-047>053-271900-
SOUTHEAST NORTH DAKOTA

CITY           SKY/WX    TMP DP  RH WIND       PRES   REMARKS
FARGO          CLOUDY    16   9  74 SW12      30.08F WCI   3
6HR MIN TEMP:   1; 6HR MAX TEMP:  16;

$$



USA.gov is the U.S. government's official web portal to all federal, state and local government web resources and services.